Location: Barruelo
(41.2448°N, 3.8231°W)
Time: 02:44:53
(UTC+00:00)

Cosmos 2227 Rocket - Pass Details

Date: 11 December 2025
Orbit: 838 x 843 km, 71.0° (Epoch: 14 January)

Event Time Altitude Azimuth Distance (km) Brightness Sun altitude
Rises 18:37:23 0° 331° (NNW) 3,400 5.5 -20.1°
Reaches altitude 10° 18:39:53 10° 327° (NNW) 2,462 4.8 -20.6°
Maximum altitude 18:45:21 54° 252° (WSW) 1,019 2.9 -21.6°
Drops below altitude 10° 18:50:49 10° 176° (S) 2,450 4.7 -22.6°
Sets 18:53:17 0° 172° (S) 3,381 5.4 -23.1°
